Theta_e
325 324 323 322 323 324 323 322 322 322 323 323 323 323 324 324 324 325 325 324 324 323 323 323 321 321 321 321 320 320 320 320 320 320 321 321 320 320 320 319 319 319
324 323 322 322 321 322 323 323 323 322 322 323 323 322 323 323 324 324 325 324 323 323 323 323 322 321 321 321 320 320 320 319 319 320 320 320 321 321 320 320 320 320
323 322 322 321 321 321 322 322 322 322 322 322 322 322 322 323 323 324 324 324 324 323 323 323 322 321 321 321 321 320 319 319 319 319 319 320 320 320 320 321 321 320
320 322 322 322 321 321 321 321 321 322 322 321 321 322 323 323 323 323 323 320 323 323 323 323 322 322 321 321 320 320 320 320 320 320 319 319 320 320 320 320 320 320
318 320 321 322 322 322 321 321 321 321 321 322 321 321 321 321 321 322 322 322 323 322 322 322 322 322 322 321 321 320 320 320 320 320 319 318 319 319 320 320 319 319
316 317 319 321 321 321 321 320 320 320 320 320 321 321 321 321 320 320 321 321 321 322 321 321 321 322 322 321 321 320 320 319 319 319 319 318 318 319 320 320 319 318
314 316 317 318 319 320 321 320 320 319 320 320 318 320 320 320 320 320 320 321 321 320 321 321 321 321 321 321 320 320 320 319 319 319 318 318 318 318 319 319 318 318
312 313 314 315 316 318 319 319 318 318 318 317 318 319 319 319 319 320 320 320 320 320 320 320 320 320 320 320 320 319 319 320 320 318 317 317 317 317 317 319 319 318
309 310 312 313 314 314 315 315 316 316 316 317 318 317 318 320 319 319 319 319 319 319 319 319 320 319 319 319 319 319 319 319 319 318 317 316 316 316 316 317 317 317
306 307 309 310 310 312 313 314 314 314 314 316 316 316 316 317 317 318 317 317 318 317 317 318 318 318 318 319 320 319 318 318 318 317 317 317 316 316 315 315 315 315
303 304 305 306 308 308 309 310 311 311 312 312 313 312 314 312 313 312 315 316 318 317 317 316 316 317 318 318 319 319 318 318 317 317 317 316 316 316 310 315 315 315
301 301 302 303 303 304 305 307 309 309 309 310 312 313 312 311 313 312 316 315 314 316 315 315 315 315 316 317 317 317 317 317 316 316 315 315 315 315 315 315 315 315
298 298 300 299 300 301 302 302 303 303 304 305 304 307 308 307 306 306 310 310 312 312 313 313 314 313 316 317 316 316 316 315 315 315 314 315 315 315 315 315 315 316
297 298 298 298 297 298 300 300 300 300 300 301 301 303 302 303 305 310 306 307 308 310 313 314 311 312 314 315 316 315 315 314 314 314 314 314 314 314 314 314 315 315
296 297 297 298 297 297 296 298 299 297 298 298 298 299 305 302 305 307 305 306 305 305 307 310 312 314 314 313 313 314 315 316 316 315 313 312 312 312 312 313 314 315
295 294 295 295 296 296 295 295 295 295 296 296 297 297 297 298 299 301 302 303 304 305 306 310 312 314 309 304 305 313 314 316 315 314 311 310 310 310 310 311 313 314
295 295 295 295 295 295 294 294 297 295 294 294 294 295 297 297 298 299 300 301 302 304 305 307 310 312 304 304 304 302 306 311 312 313 312 308 308 308 310 309 310 311
294 294 294 294 294 295 294 293 293 293 293 292 293 293 295 294 295 296 297 297 301 301 302 304 305 302 302 302 301 301 300 306 309 311 312 311 310 309 309 308 309 310
294 294 293 294 294 294 293 294 293 292 293 292 293 292 291 292 293 293 294 295 297 298 299 301 301 301 302 301 300 300 300 300 306 308 309 308 308 308 308 309 308 308
293 293 293 293 294 294 293 293 293 293 292 292 292 291 291 291 291 292 293 293 294 295 297 297 298 298 299 299 298 298 298 298 303 304 305 306 306 306 307 307 307 307
292 292 293 293 293 293 293 292 292 292 292 293 293 293 293 293 293 293 293 292 293 294 295 296 297 297 297 297 298 298 299 297 300 302 302 303 305 306 306 307 307 308
291 292 292 292 292 292 292 292 292 292 292 292 291 291 290 290 291 291 292 293 293 293 293 294 294 296 296 296 296 297 297 297 298 298 300 300 301 302 303 304 305 306
291 291 291 291 291 291 290 290 291 291 291 291 291 291 290 291 291 292 292 293 293 292 293 294 294 294 295 295 295 296 295 295 296 297 298 299 300 300 301 302 303 304
291 291 291 291 291 291 290 290 290 289 289 290 290 290 290 291 291 291 292 292 292 292 293 293 294 293 293 294 294 295 294 294 295 296 296 297 298 299 300 301 301 294
290 290 290 289 290 290 290 289 289 289 289 288 289 289 290 290 290 290 291 291 290 291 289 291 292 291 292 293 293 294 293 292 293 293 294 295 296 296 297 298 299 296
287 287 288 288 289 289 288 288 288 288 289 289 289 289 289 289 289 289 290 291 290 290 291 290 290 291 291 293 293 293 294 291 290 292 292 293 294 293 293 295 295 296
Wind_Speed
10 8 9 9 9 8 8 8 7 8 8 7 9 9 9 8 9 12 12 11 12 12 12 12 11 11 11 11 11 10 10 11 10 9 11 11 11 12 12 13 13 12
8 8 7 7 7 7 7 7 7 8 8 8 8 7 8 8 9 10 11 12 11 12 12 12 12 12 12 10 10 10 10 10 11 8 10 12 12 12 14 15 14 13
7 7 8 8 9 8 8 7 7 7 7 7 7 7 7 7 9 9 10 11 11 11 11 11 11 12 12 11 10 10 10 11 11 9 9 11 12 13 13 13 12 14
6 7 8 8 7 7 6 7 7 7 6 7 7 7 7 6 7 9 8 9 9 10 10 10 11 11 11 11 11 10 11 11 11 10 11 10 12 12 12 11 11 11
6 6 6 6 6 7 6 7 8 8 8 8 6 6 6 6 6 6 8 8 9 9 9 10 10 10 11 11 11 11 11 11 11 11 11 12 11 10 10 10 12 13
4 4 4 5 6 6 7 7 7 7 7 6 7 6 6 6 6 7 8 9 8 9 9 9 10 10 11 11 11 11 11 11 11 11 12 12 11 10 9 11 12 13
4 3 4 4 4 5 6 7 6 6 5 5 4 6 5 6 7 7 7 8 8 9 10 9 9 10 9 9 9 11 11 11 11 12 13 12 11 12 11 11 13 13
3 3 4 4 4 4 5 5 4 5 5 5 5 6 6 6 7 6 6 7 8 9 9 9 9 9 9 9 10 11 12 10 11 12 12 12 11 12 13 11 11 13
3 3 3 3 3 3 3 4 4 4 4 5 6 5 5 7 7 6 6 6 7 7 8 8 9 8 8 9 11 12 12 11 11 11 12 12 12 13 12 11 11 12
4 4 4 3 2 2 1 2 2 4 4 4 4 4 5 5 5 5 5 6 7 7 7 7 8 8 8 10 11 11 12 13 12 11 11 12 12 12 11 11 12 12
3 4 4 4 4 3 3 2 2 2 2 4 4 4 4 4 4 4 5 6 8 8 8 8 8 8 9 10 10 10 11 11 11 11 11 12 12 12 11 11 12 13
2 3 3 4 4 4 4 4 4 3 3 3 2 3 3 4 5 5 6 7 7 7 7 7 7 8 9 10 9 9 9 10 10 10 11 11 11 11 11 11 12 13
4 4 4 4 4 5 5 5 5 5 5 4 4 2 2 4 4 4 5 5 6 6 6 6 6 7 8 9 9 9 9 10 11 11 10 10 11 11 11 11 12 12
4 3 3 3 4 4 4 4 4 4 4 4 4 4 4 4 4 5 5 5 5 5 6 6 6 6 8 8 8 8 9 9 9 10 10 11 10 10 10 11 11 12
5 4 3 2 2 2 3 4 4 5 4 4 4 4 5 4 5 4 5 5 5 5 5 6 7 8 7 7 7 7 7 8 9 9 10 10 10 10 9 10 10 11
5 5 5 5 5 5 4 4 4 4 4 4 4 4 4 4 5 5 5 5 5 5 6 5 6 6 7 11 11 8 7 7 8 8 8 8 9 9 9 9 10 11
6 6 5 6 5 5 5 5 5 5 4 4 4 4 5 5 5 5 5 5 5 5 6 6 5 5 9 11 12 13 9 8 8 9 7 6 7 7 9 9 9 10
7 6 7 6 6 6 5 5 5 5 5 4 4 5 5 4 5 5 4 5 5 5 6 6 5 6 11 11 11 11 10 8 8 8 9 9 9 9 9 8 9 9
7 7 7 7 7 6 5 5 5 5 5 5 5 5 4 4 5 4 5 5 5 5 6 6 5 7 10 12 12 12 12 10 8 9 9 10 9 10 10 11 10 10
7 7 8 7 6 7 6 6 6 6 5 5 4 5 4 5 5 5 5 5 5 5 6 5 5 7 10 11 10 10 10 9 8 8 9 10 10 10 10 12 12 11
7 6 7 7 7 7 7 6 6 6 6 5 5 6 6 7 7 7 6 5 5 5 6 7 6 10 11 12 11 12 12 9 7 8 9 10 11 11 12 13 12 11
6 6 7 7 7 7 7 8 7 6 7 7 6 6 4 4 5 4 5 6 5 5 6 7 5 9 10 10 11 11 12 8 6 8 9 10 11 11 11 11 10 10
7 7 7 7 7 8 8 8 8 8 7 6 7 7 7 7 6 5 5 6 6 5 5 7 5 6 8 9 9 9 7 5 5 7 9 10 12 11 10 10 10 10
8 7 8 8 8 9 10 9 6 5 6 6 6 8 9 7 6 7 6 5 6 6 5 7 9 7 9 9 10 10 8 6 6 6 10 10 12 11 9 10 11 15
6 6 6 7 7 7 8 10 11 10 9 6 6 6 7 7 7 7 9 7 5 5 7 8 9 9 9 10 10 10 7 5 5 6 9 10 9 12 9 8 11 10
3 4 5 5 7 8 7 5 6 8 10 10 10 8 9 9 9 8 9 10 8 7 7 5 8 9 6 10 10 10 10 6 4 5 9 11 9 9 11 11 9 9
Wind_Direction
212 211 218 220 224 220 218 216 214 213 212 206 208 208 205 204 190 195 200 201 202 203 204 204 202 205 206 206 207 210 214 219 219 215 215 218 224 226 228 229 224 225
213 209 210 214 221 218 219 211 211 209 214 213 212 203 203 196 199 192 196 200 199 205 203 202 202 204 206 206 205 207 215 216 220 213 215 215 221 222 228 228 228 228
208 207 205 207 213 217 215 213 212 215 215 216 209 206 204 195 197 198 195 194 198 203 204 203 204 204 205 207 205 208 213 217 221 216 213 216 217 222 225 226 227 227
216 208 205 207 207 212 207 206 216 217 217 217 214 208 202 201 194 195 196 190 194 200 203 203 205 205 203 204 203 210 213 217 219 214 217 219 220 222 225 226 228 229
217 219 212 207 208 208 204 205 210 211 212 216 214 210 205 205 195 186 191 192 195 198 201 205 204 204 202 203 202 208 212 218 218 214 216 222 223 221 226 223 228 230
231 217 215 210 206 202 209 213 217 214 215 215 216 206 208 201 196 194 189 191 195 196 200 204 206 207 201 201 202 209 212 217 219 215 219 223 224 219 222 223 227 230
243 236 239 226 215 206 206 214 218 218 216 214 203 213 204 204 205 203 195 192 193 199 203 205 206 210 207 204 205 212 216 217 218 216 220 224 222 224 223 225 227 231
275 259 240 238 229 222 213 213 210 206 211 205 203 215 198 208 209 207 202 199 199 205 208 209 210 210 208 205 212 217 221 219 222 221 224 227 221 227 224 225 226 232
337 320 303 277 253 251 233 227 219 212 201 202 210 213 209 205 210 207 205 204 209 211 209 211 211 213 208 207 214 219 222 225 224 223 226 228 225 229 227 225 229 231
341 334 347 342 340 314 295 271 235 224 217 211 216 212 216 223 208 205 201 206 211 217 214 210 210 211 211 212 217 217 222 226 227 227 229 230 230 232 229 224 229 234
347 354 1 352 339 335 325 311 296 267 248 222 222 228 222 221 235 213 210 210 215 216 217 215 212 209 214 220 222 221 222 227 228 229 231 233 234 234 230 227 230 233
347 3 1 349 342 340 330 327 328 320 305 294 254 235 245 232 221 225 215 223 222 223 219 220 216 215 219 224 225 224 227 229 231 232 233 234 235 234 232 229 232 236
13 21 24 9 1 348 346 348 342 336 345 331 330 321 283 269 266 246 246 228 234 231 230 226 227 225 229 230 229 227 228 229 233 235 236 235 236 234 233 231 233 237
5 27 28 1 348 347 345 338 335 337 327 323 340 327 313 291 273 265 264 252 244 236 235 230 232 236 235 234 231 229 229 233 233 237 241 242 242 239 235 234 235 238
5 2 4 8 353 353 346 336 334 330 331 332 328 310 298 288 279 275 278 281 280 262 252 240 236 239 238 239 244 246 240 245 243 242 242 246 249 247 241 239 241 240
10 10 10 10 16 9 352 343 337 332 334 329 320 307 299 294 293 290 285 276 277 280 272 260 249 248 250 249 244 244 250 252 253 249 247 247 250 251 249 243 243 243
14 10 7 15 11 10 5 2 349 343 337 326 317 309 304 299 302 303 295 288 282 279 279 274 273 277 279 267 261 257 255 261 263 267 263 262 259 254 258 253 249 247
10 8 12 5 6 3 359 353 349 349 341 333 328 328 315 321 320 292 291 290 285 283 277 273 273 278 286 286 279 272 262 256 261 262 265 264 265 265 265 263 259 258
6 9 6 4 1 355 353 355 355 351 346 344 332 310 317 320 295 300 292 287 282 280 277 275 278 276 278 280 282 276 268 261 262 260 262 263 260 260 262 263 263 265
3 4 2 357 353 353 355 357 359 351 340 330 326 328 329 316 309 304 299 300 295 293 291 292 286 285 283 288 288 283 278 268 263 267 264 263 262 259 259 259 256 256
3 3 359 352 352 351 354 356 352 343 344 338 337 331 329 323 320 317 307 298 293 288 286 280 276 277 280 284 288 289 287 280 276 276 273 271 268 265 262 262 262 261
0 358 355 351 348 350 351 348 347 344 337 335 334 327 310 300 295 280 282 285 274 271 273 272 258 258 270 275 277 279 279 279 276 272 273 272 271 266 264 267 271 265
358 353 351 349 346 346 345 343 341 335 333 336 330 323 321 318 308 298 291 292 292 281 282 286 284 269 273 278 283 284 289 280 278 278 276 278 275 277 275 272 267 264
348 350 346 343 344 343 337 331 326 314 317 330 325 321 320 314 310 307 296 287 289 293 288 295 296 289 284 283 280 278 272 276 277 280 282 280 283 281 279 276 271 267
335 339 338 334 333 330 334 331 331 329 319 322 315 311 303 308 316 313 310 304 285 285 294 288 287 291 283 273 264 264 265 262 266 275 281 281 284 288 285 277 282 276
311 325 319 323 318 317 317 311 309 321 322 325 322 323 319 319 318 316 314 310 312 305 294 272 286 291 278 264 260 255 248 243 242 258 272 279 282 283 295 294 283 281